Theta_e
336 344 347 348 346 346 345 345 343 346 346 347 348 346 344 343 345 346 345 344 347 344 342 343 343 342 341 341 340 339 339 338 338 338 337 335 335 337 338 337 336 331 334
339 345 345 348 347 346 344 345 344 344 345 344 344 343 341 342 342 344 342 345 346 345 343 343 343 341 340 338 337 336 336 335 334 334 334 335 335 334 334 333 334 330 332
341 345 347 347 346 345 345 345 345 344 343 342 340 340 340 341 342 342 344 346 346 342 341 341 341 340 338 337 336 335 334 333 332 331 330 329 329 332 332 331 331 331 331
342 345 346 345 346 346 345 345 345 346 344 340 339 339 338 340 341 343 343 345 343 342 341 340 340 339 337 336 334 333 333 332 331 329 327 327 328 331 330 330 331 331 331
342 344 345 345 347 346 346 345 346 346 344 341 339 338 338 339 337 338 342 341 340 340 339 338 338 337 336 335 333 332 332 331 329 328 328 328 329 329 330 329 328 328 327
341 343 344 346 347 346 345 345 345 346 344 341 340 339 337 336 338 341 341 340 338 337 337 336 336 337 336 334 333 331 331 329 326 326 326 327 328 329 330 329 328 328 327
339 342 345 344 345 345 344 344 345 344 342 338 338 338 336 338 339 339 339 338 336 336 335 335 334 334 334 333 332 330 329 327 325 325 325 327 327 329 329 328 327 326 326
338 340 343 338 340 342 343 343 343 343 342 340 338 338 338 340 340 337 337 336 336 334 333 333 333 332 332 331 331 330 327 325 323 325 325 326 330 328 328 326 326 325 325
337 339 341 342 339 335 338 338 339 340 340 340 340 339 339 339 340 339 338 336 335 334 333 332 332 331 331 330 329 328 327 324 324 324 323 325 329 329 328 326 325 325 325
335 337 338 340 339 338 338 331 334 336 337 337 335 334 332 333 334 334 333 336 335 333 332 331 331 330 329 329 327 325 323 322 323 323 323 323 327 329 329 328 327 327 327
330 334 336 336 336 335 335 330 330 331 331 329 328 326 327 333 333 333 330 333 334 333 332 331 330 327 324 324 324 323 321 323 323 323 323 323 327 330 331 331 330 330 329
325 331 334 334 333 333 332 332 332 329 329 328 327 328 328 328 330 329 323 323 326 327 329 329 326 323 322 323 322 321 322 323 323 323 323 323 328 330 331 332 332 333 333
325 329 332 333 332 331 329 329 329 328 327 325 325 326 325 324 324 325 325 323 324 319 323 322 322 323 322 321 321 321 321 322 323 323 322 322 326 329 331 332 333 333 334
322 327 330 332 331 329 329 328 327 325 325 324 324 325 325 323 322 322 321 322 324 324 324 324 323 321 321 320 320 321 321 321 321 322 321 318 322 327 330 331 332 333 333
323 326 328 330 331 329 328 327 325 324 324 324 324 325 325 324 322 322 322 323 323 323 323 323 322 321 320 320 320 319 319 320 320 321 322 316 319 324 327 330 331 332 332
322 324 326 328 330 329 328 327 326 324 324 325 325 325 324 324 323 323 323 324 324 324 323 322 321 320 319 319 319 319 320 320 321 321 321 321 317 319 322 326 328 329 330
322 323 323 326 328 328 328 327 326 326 325 325 325 325 324 323 322 323 324 323 324 323 322 321 320 320 320 319 320 320 321 322 321 320 320 320 319 317 318 323 324 324 324
323 322 323 325 326 327 328 327 327 326 327 327 327 326 324 323 322 322 322 323 323 322 322 320 318 320 320 319 320 321 322 321 320 319 319 318 318 318 317 318 318 318 320
325 323 322 325 325 326 326 327 327 327 327 328 328 327 325 323 322 322 321 322 322 322 320 319 319 317 319 321 320 321 322 320 319 317 316 317 317 316 315 315 313 313 315
326 326 324 324 325 326 326 325 327 327 328 329 329 329 326 325 324 323 322 321 320 319 319 320 318 318 320 320 318 317 320 319 317 316 315 314 315 312 314 310 311 309 311
326 326 325 324 325 326 325 324 325 326 328 329 328 328 327 326 325 324 324 323 322 321 321 320 319 317 318 320 318 318 317 315 315 314 315 314 311 311 308 307 308 308 308
325 326 326 325 326 326 327 327 328 329 330 329 329 328 328 327 326 325 325 325 324 323 322 321 320 318 317 317 316 313 309 310 314 312 311 312 307 306 302 305 305 304 306
322 325 325 326 326 327 327 326 326 328 327 326 327 327 328 328 328 327 327 327 326 325 325 323 321 319 316 315 315 313 306 303 306 310 308 308 303 298 301 302 301 302 304
319 323 326 327 327 327 328 326 326 326 323 325 326 328 329 328 328 327 327 327 326 324 322 320 320 319 317 312 313 311 313 310 301 299 304 303 298 296 298 298 298 301 299
317 318 322 325 327 327 328 328 326 326 326 325 325 325 326 325 327 326 326 324 321 319 318 316 313 312 313 312 309 307 306 304 303 297 293 294 293 294 296 295 298 297 295
310 315 319 322 324 327 327 328 327 326 324 323 322 322 321 318 316 317 315 314 312 311 309 307 306 306 305 303 301 299 299 297 295 294 292 290 288 292 293 296 295 294 292
Wind_Speed
4 6 11 15 14 15 14 15 15 13 14 16 17 19 17 18 17 16 16 16 17 19 19 19 20 21 21 21 20 20 20 19 19 19 18 18 18 17 18 18 16 16 18
9 8 11 14 14 14 15 14 14 13 14 16 15 16 16 17 18 16 17 16 18 20 20 19 20 20 20 19 19 18 18 18 17 17 15 15 16 18 19 19 17 16 16
9 8 11 14 13 14 12 12 13 15 16 16 16 17 17 17 16 16 15 17 18 19 20 19 19 19 19 18 18 17 17 17 16 15 14 10 13 17 16 16 15 15 14
9 8 11 12 13 13 12 12 11 15 16 17 17 17 16 16 15 15 16 17 17 18 20 18 18 17 17 17 17 17 16 15 14 12 9 10 10 15 15 15 16 16 15
9 9 11 12 13 13 12 12 11 16 17 17 16 17 17 16 16 14 16 16 17 16 17 17 16 15 15 15 15 15 15 15 13 10 10 9 8 12 13 13 11 12 12
9 9 10 13 13 14 12 12 14 17 17 16 16 15 16 15 13 15 14 16 17 15 16 16 15 15 14 14 14 14 13 13 10 9 8 9 9 12 12 12 11 11 10
9 8 9 11 13 13 13 13 14 15 17 16 15 16 16 14 15 15 15 16 15 14 14 14 15 15 14 13 13 13 12 12 8 7 7 7 8 10 11 10 10 10 10
9 7 8 10 11 11 12 14 13 14 15 15 14 14 12 12 15 15 14 14 13 13 13 13 13 13 13 12 10 11 10 9 7 7 7 6 10 9 10 9 9 8 8
7 6 8 10 11 10 10 12 14 12 12 12 11 11 10 13 14 14 13 13 12 12 12 12 12 12 11 12 10 9 9 9 6 5 5 4 10 10 9 8 8 8 8
6 5 8 8 8 9 8 10 12 12 11 11 11 11 10 12 11 11 9 11 11 10 10 11 11 11 10 11 10 8 7 6 5 4 4 4 9 9 8 8 8 9 9
7 4 5 7 7 7 8 7 10 10 10 11 10 10 8 6 7 9 9 10 10 9 9 10 10 10 9 8 9 8 6 3 5 4 3 7 9 9 9 9 7 8 8
10 6 5 7 7 6 5 5 7 7 6 6 7 7 5 6 5 6 7 9 9 9 10 9 10 9 6 4 4 5 3 4 3 4 3 8 10 11 12 12 13 14 13
13 6 6 7 7 7 5 4 3 3 4 4 6 5 5 4 4 3 3 3 3 5 3 4 4 4 5 4 3 3 4 4 3 3 5 9 10 12 13 14 15 16 17
14 14 9 8 8 6 5 4 4 4 3 4 4 5 4 3 3 3 3 3 3 2 3 3 3 3 4 4 4 4 5 4 4 4 5 8 12 14 15 16 17 17 18
12 13 11 9 9 8 7 5 4 4 4 4 5 4 3 3 3 3 3 2 2 2 2 2 2 2 3 4 4 4 4 5 5 3 4 6 9 12 14 14 15 16 17
8 11 13 12 10 9 8 9 6 5 4 4 3 3 4 4 3 3 2 2 1 0 0 0 1 2 2 3 4 4 5 5 6 6 4 5 8 10 12 13 15 16 17
8 9 10 10 10 11 11 8 6 6 6 5 4 5 5 4 4 3 2 1 1 1 1 1 1 2 3 3 4 5 5 6 5 6 5 4 5 6 9 12 14 16 17
11 12 10 9 11 9 7 7 6 5 5 5 4 4 5 5 5 4 3 2 2 1 1 1 1 2 3 3 4 5 5 4 5 4 3 5 4 5 6 12 14 18 19
10 11 11 10 12 12 9 7 7 8 6 5 5 5 6 6 5 3 3 3 3 2 1 1 1 1 3 4 4 6 6 4 3 2 7 6 6 7 7 9 15 14 20
10 10 10 10 10 10 6 5 4 4 5 5 6 6 7 5 6 5 3 3 3 2 2 1 1 1 2 3 5 5 5 2 2 4 5 4 6 9 8 11 9 10 17
9 10 11 11 10 8 5 5 4 5 6 5 4 5 6 5 6 5 3 4 4 3 3 2 0 1 1 3 3 5 4 2 3 5 4 5 8 8 11 9 7 7 8
14 14 12 12 12 11 8 6 3 6 4 3 5 5 6 6 6 5 5 4 4 3 3 3 3 1 1 4 3 2 4 3 2 5 6 4 8 8 10 10 10 10 10
15 14 14 15 14 13 12 6 3 3 2 3 3 3 6 8 8 7 6 5 4 3 2 3 3 3 2 1 4 2 2 3 7 2 4 4 7 9 8 9 10 11 11
16 14 14 14 14 13 14 11 13 9 7 4 6 5 7 9 7 5 5 4 4 3 3 2 2 2 3 1 1 2 3 0 1 5 3 4 9 9 10 8 9 11 13
14 14 14 14 14 14 14 14 12 11 8 5 5 8 5 4 3 4 5 5 5 4 4 5 4 4 2 3 2 1 2 3 3 2 5 5 3 6 4 5 7 8 12
7 11 13 15 15 14 15 16 16 15 11 7 5 5 5 4 3 4 5 6 5 5 5 4 5 6 6 6 5 4 2 2 1 1 3 4 6 3 5 6 7 8 10
Wind_Direction
171 149 134 123 121 118 111 103 92 90 91 92 92 89 84 88 85 88 86 87 89 86 81 83 79 74 71 69 67 67 67 65 62 61 58 60 61 63 59 52 55 54 49
141 142 138 124 120 115 108 101 96 93 96 95 91 88 89 91 91 87 91 91 87 84 78 75 82 79 76 71 68 65 63 63 63 59 55 54 57 50 47 48 44 50 57
133 132 130 119 118 114 109 108 110 104 99 95 99 96 94 96 95 95 92 85 84 85 79 77 82 80 77 71 65 64 64 62 58 54 49 54 54 53 58 57 57 54 54
134 128 129 123 122 120 120 118 112 114 105 105 102 99 96 96 96 89 95 89 81 78 82 76 75 79 77 72 68 65 67 62 60 54 57 45 58 62 55 49 47 47 40
134 134 131 127 127 122 116 113 104 120 109 107 105 106 99 99 99 95 85 89 85 79 80 77 74 78 80 78 72 68 65 61 54 52 49 57 50 58 52 58 53 47 42
130 134 139 134 131 127 123 111 96 116 112 107 107 104 101 103 91 81 84 84 89 85 82 79 75 76 83 73 72 69 66 61 55 50 46 40 51 50 50 48 45 44 41
137 139 143 134 131 128 123 113 108 106 108 107 110 108 113 117 112 93 84 81 86 87 85 80 75 73 71 70 68 65 64 58 53 50 48 40 47 45 46 42 37 34 28
139 136 140 135 131 131 125 124 115 113 113 112 118 119 108 88 115 106 94 90 91 88 86 83 79 75 70 69 73 70 66 56 52 48 39 30 14 36 36 33 26 21 16
119 129 134 142 134 122 122 125 119 116 115 116 108 114 95 70 85 92 94 93 90 89 86 81 77 74 68 59 61 65 60 54 49 40 29 19 359 21 23 16 10 7 2
118 129 135 135 133 133 132 116 120 116 109 98 89 88 86 81 75 74 73 83 85 83 82 82 72 64 65 54 51 53 50 49 38 27 19 7 352 1 4 0 355 350 342
143 127 126 124 127 128 132 124 113 112 109 108 101 93 90 92 82 77 69 70 71 71 72 70 61 51 52 51 42 37 32 29 20 12 354 337 335 336 339 338 329 319 307
161 145 127 130 136 130 118 115 115 118 122 119 105 95 89 85 81 84 71 57 54 49 52 56 48 45 37 26 22 23 22 9 4 354 341 332 335 334 331 330 327 322 313
164 153 147 140 148 137 129 127 127 124 130 124 118 114 111 106 96 85 78 57 59 48 48 45 34 34 23 17 12 10 0 358 353 342 327 322 329 331 331 329 325 323 323
173 169 160 141 152 142 136 145 149 145 139 135 131 127 123 112 99 88 75 69 60 45 48 38 26 14 11 4 1 354 359 351 340 326 326 321 327 332 333 331 329 327 328
178 167 172 159 165 162 157 161 166 165 162 152 151 150 142 131 118 112 106 101 80 50 38 27 14 8 356 349 346 345 342 329 324 322 319 315 322 335 344 349 354 352 349
184 183 170 176 173 177 174 172 175 171 169 167 173 166 159 143 136 139 140 136 142 148 144 317 346 341 327 320 324 326 321 316 323 329 335 335 337 352 358 6 5 1 357
191 179 182 178 177 178 183 182 180 183 174 180 186 178 170 159 155 149 161 177 187 193 238 292 313 303 315 328 315 321 321 322 331 343 346 355 6 9 12 17 15 7 358
180 185 185 181 177 187 197 187 187 189 188 185 181 176 182 178 170 170 178 203 197 199 227 282 313 316 300 314 325 322 311 322 344 357 359 12 22 20 15 14 13 1 1
192 187 184 190 185 185 191 191 195 192 192 197 189 187 188 184 179 175 191 210 193 190 216 214 250 282 310 322 319 315 308 342 4 37 11 32 33 28 12 10 2 2 360
193 191 192 190 191 180 174 178 192 196 212 201 204 194 177 182 180 179 191 200 187 186 212 213 244 262 286 325 308 301 323 13 129 32 38 41 55 14 23 1 1 356 358
185 190 193 184 194 176 174 182 187 198 204 208 190 183 179 183 189 195 183 181 184 200 205 191 250 342 324 333 307 340 341 24 123 13 56 49 32 25 358 359 355 355 359
193 201 195 196 190 192 192 192 175 178 189 180 183 177 181 179 185 191 191 194 191 199 203 193 192 174 104 8 8 325 357 347 356 22 19 54 20 2 350 356 356 4 12
200 195 202 198 192 192 192 167 128 114 85 129 166 172 187 187 188 193 204 201 186 205 222 158 177 178 143 73 64 40 360 342 338 1 26 30 18 347 345 348 352 21 27
207 197 202 201 197 195 188 187 197 198 188 184 174 185 194 190 194 193 200 195 175 153 148 128 129 121 129 133 116 20 45 14 256 310 332 4 3 345 341 347 8 33 33
203 196 197 200 201 197 191 196 200 204 206 185 185 169 152 122 172 171 159 137 127 121 116 120 114 109 100 134 143 159 83 70 73 250 291 321 334 327 338 343 36 47 32
197 198 197 198 202 195 191 197 201 204 198 182 169 142 144 131 126 113 114 118 116 115 116 118 110 100 107 104 95 78 91 94 97 272 281 305 324 286 323 52 61 45 23